Weather observations for the past three days for
Comox, B. C.
| Date | Time (pdt) | Wind (mph) | Vis. (mi.) | Weather | Sky Cond. | Temperature (ºF) | Relative Humidity | Wind Chill (°F) | Heat Index (°F) | Pressure | Precipitation (in) | ||||||
|---|---|---|---|---|---|---|---|---|---|---|---|---|---|---|---|---|---|
| Air | Dwpt | 6 hour | altimeter (in) | sea level (mb) | 1 hr | 3 hr | 6 hr | ||||||||||
| Max. | Min. | ||||||||||||||||
| 08 | 22:00 | SE 10 | 20.00 | A Few Clouds | FEW070 | 53.6 | 46.4 | 77% | 30.15 | 1021.1 | |||||||
| 08 | 21:00 | SE 14 | 20.00 | A Few Clouds | FEW070 | 55.4 | 44.6 | 67% | 30.13 | 1020.4 | |||||||
| 08 | 20:00 | SE 10 | 20.00 | Partly Cloudy | SCT070 | 57.2 | 46.4 | 67% | 30.12 | 1019.9 | |||||||
| 08 | 19:00 | SE 12 G 17 | 20.00 | Partly Cloudy | SCT070 | 60.8 | 44.6 | 55% | 30.1 | 1019.4 | |||||||
| 08 | 18:00 | SE 14 | 20.00 | Mostly Cloudy | BKN075 | 60.8 | 44.6 | 55% | 30.1 | 1019.2 | |||||||
| 08 | 17:00 | SE 20 G 28 | 20.00 | Mostly Cloudy | BKN070 | 60.8 | 44.6 | 55% | 30.09 | 1019.0 | |||||||
| 08 | 16:00 | SE 21 G 28 | 20.00 | Mostly Cloudy and Breezy | SCT080 BKN140 | 60.8 | 44.6 | 55% | 30.09 | 1018.9 | |||||||
| 08 | 15:00 | SE 16 G 22 | 20.00 | Mostly Cloudy | BKN090 | 62.6 | 42.8 | 49% | 30.07 | 1018.4 | |||||||
| 08 | 14:00 | SE 15 | 20.00 | Mostly Cloudy | FEW080 BKN100 | 64.4 | 41 | 43% | 30.07 | 1018.3 | |||||||
| 08 | 13:00 | SE 13 | 20.00 | Overcast | FEW100 OVC160 | 60.8 | 42.8 | 52% | 30.06 | 1017.9 | |||||||
| 08 | 12:00 | E 3 | 20.00 | Overcast | FEW110 OVC140 | 62.6 | 41 | 45% | 30.04 | 1017.4 | |||||||
| 08 | 11:00 | E 8 | 20.00 | Overcast | FEW110 OVC160 | 59 | 46.4 | 63% | 30.03 | 1017.1 | |||||||
| 08 | 10:00 | E 5 | 15.00 | Overcast | FEW030 FEW090 OVC160 | 59 | 44.6 | 59% | 30.02 | 1016.6 | |||||||
| 08 | 09:00 | SE 5 | 15.00 | Overcast | FEW055 FEW090 OVC180 | 59 | 48.2 | 68% | 30.01 | 1016.2 | |||||||
| 08 | 08:00 | S 3 | 15.00 | Overcast | FEW050 OVC180 | 57.2 | 46.4 | 67% | 29.99 | 1015.6 | |||||||
| 08 | 07:00 | S 3 | 15.00 | Overcast | SCT050 OVC180 | 55.4 | 48.2 | 77% | 29.97 | 1015.0 | |||||||
| 08 | 06:00 | SE 7 | 15.00 | Overcast | BKN048 BKN065 OVC180 | 55.4 | 48.2 | 77% | 29.97 | 1014.9 | |||||||
| 08 | 05:00 | S 5 | 20.00 | Overcast | BKN053 OVC150 | 55.4 | 50 | 82% | 29.97 | 1014.8 | |||||||
| 08 | 04:00 | S 13 | 20.00 | Overcast | OVC062 | 55.4 | 51.8 | 88% | 29.96 | 1014.6 | |||||||
| 08 | 03:00 | SE 8 | 20.00 | Overcast | OVC060 | 57.2 | 51.8 | 82% | 29.96 | 1014.6 | |||||||
| 08 | 02:00 | S 10 | 20.00 | Overcast | OVC060 | 57.2 | 50 | 77% | 29.96 | 1014.7 | |||||||
| 08 | 01:00 | S 2 | 20.00 | Overcast | SCT140 OVC160 | 57.2 | 50 | 77% | 29.96 | 1014.8 | |||||||
| 08 | 00:00 | SE 9 | 20.00 | Mostly Cloudy | BKN180 | 55.4 | 51.8 | 88% | 29.97 | 1015.0 | |||||||
| 07 | 23:00 | E 2 | 20.00 | Mostly Cloudy | SCT190 BKN230 | 55.4 | 51.8 | 88% | 29.98 | 1015.3 | |||||||
| 07 | 22:00 | S 5 | 20.00 | A Few Clouds | FEW230 | 55.4 | 50 | 82% | 29.98 | 1015.4 | |||||||
| 07 | 21:00 | S 5 | 20.00 | Mostly Cloudy | BKN230 | 57.2 | 48.2 | 72% | 29.98 | 1015.3 | |||||||
| 07 | 20:00 | SE 5 | 20.00 | Partly Cloudy | SCT220 | 59 | 50 | 72% | 29.99 | 1015.5 | |||||||
| 07 | 19:00 | SE 8 | 20.00 | Partly Cloudy | SCT250 | 60.8 | 48.2 | 63% | 30 | 1015.9 | |||||||
| 07 | 18:00 | SE 6 | 20.00 | A Few Clouds | FEW250 | 64.4 | 46.4 | 52% | 30.01 | 1016.4 | |||||||
| 07 | 17:00 | SE 6 | 20.00 | A Few Clouds | FEW060 FEW250 | 64.4 | 46.4 | 52% | 30.03 | 1016.9 | |||||||
| 07 | 16:00 | SE 6 | 20.00 | A Few Clouds | FEW060 FEW250 | 66.2 | 46.4 | 49% | 30.05 | 1017.5 | |||||||
| 07 | 15:00 | E 7 | 20.00 | A Few Clouds | FEW060 FEW250 | 64.4 | 46.4 | 52% | 30.06 | 1018.1 | |||||||
| 07 | 14:00 | E 5 | 20.00 | Partly Cloudy | FEW060 SCT250 | 60.8 | 44.6 | 55% | 30.09 | 1018.8 | |||||||
| 07 | 13:00 | NE 5 | 20.00 | A Few Clouds | FEW060 FEW250 | 59 | 44.6 | 59% | 30.11 | 1019.7 | |||||||
| 07 | 12:00 | N 7 | 20.00 | A Few Clouds | FEW060 FEW250 | 59 | 42.8 | 55% | 30.13 | 1020.2 | |||||||
| 07 | 11:00 | N 8 | 20.00 | A Few Clouds | FEW060 FEW250 | 55.4 | 42.8 | 63% | 30.14 | 1020.7 | |||||||
| 07 | 10:00 | N 10 G 17 | 20.00 | A Few Clouds | FEW040 FEW250 | 55.4 | 42.8 | 63% | 30.15 | 1021.1 | |||||||
| 07 | 09:00 | NW 14 | 15.00 | A Few Clouds | FEW035 | 53.6 | 42.8 | 67% | 30.16 | 1021.3 | |||||||
| 07 | 08:00 | NW 12 G 17 | 15.00 | A Few Clouds | FEW035 | 51.8 | 41 | 67% | 30.16 | 1021.3 | |||||||
| 07 | 07:00 | NW 8 | 20.00 | A Few Clouds | FEW035 | 50 | 39.2 | 67% | 47 | 30.16 | 1021.3 | ||||||
| 07 | 06:00 | NW 9 | 15.00 | Mostly Cloudy | BKN036 | 50 | 39.2 | 67% | 47 | 30.16 | 1021.3 | ||||||
| 07 | 05:00 | NW 3 | 20.00 | Mostly Cloudy | BKN038 | 50 | 39.2 | 67% | 30.16 | 1021.3 | |||||||
| 07 | 04:00 | NW 8 | 20.00 | Overcast | OVC036 | 50 | 39.2 | 67% | 47 | 30.16 | 1021.3 | ||||||
| 07 | 03:00 | NW 8 | 20.00 | Overcast | OVC036 | 51.8 | 39.2 | 62% | 30.16 | 1021.4 | |||||||
| 07 | 02:00 | NW 8 | 20.00 | Mostly Cloudy | BKN037 | 51.8 | 41 | 67% | 30.15 | 1021.1 | |||||||
| 07 | 01:00 | NW 9 | 20.00 | Mostly Cloudy | BKN038 BKN060 | 51.8 | 42.8 | 72% | 30.14 | 1020.8 | |||||||
| 07 | 00:00 | N 14 | 20.00 | Mostly Cloudy | BKN040 BKN070 | 53.6 | 44.6 | 72% | 30.13 | 1020.4 | |||||||
| 06 | 23:00 | N 13 G 18 | 20.00 | Mostly Cloudy | SCT050 BKN070 | 53.6 | 44.6 | 72% | 30.13 | 1020.2 | |||||||
| 06 | 22:00 | N 10 | 20.00 | Mostly Cloudy | FEW045 BKN065 | 57.2 | 48.2 | 72% | 30.12 | 1020.0 | |||||||
| 06 | 21:00 | S 2 | 20.00 | Mostly Cloudy | SCT042 BKN065 | 57.2 | 51.8 | 82% | 30.11 | 1019.5 | |||||||
| 06 | 20:00 | SE 3 | 20.00 | Mostly Cloudy | BKN065 | 57.2 | 51.8 | 82% | 30.1 | 1019.3 | |||||||
| 06 | 19:00 | SE 5 | 20.00 | Mostly Cloudy | BKN065 | 59 | 51.8 | 77% | 30.1 | 1019.4 | |||||||
| 06 | 18:00 | SE 6 | 20.00 | Mostly Cloudy | BKN055 | 59 | 50 | 72% | 30.1 | 1019.4 | |||||||
| 06 | 17:00 | SE 6 | 20.00 | Mostly Cloudy | FEW025 BKN055 | 59 | 51.8 | 77% | 30.1 | 1019.3 | |||||||
| 06 | 16:00 | SE 8 | 20.00 | Overcast | OVC055 | 60.8 | 50 | 68% | 30.11 | 1019.6 | |||||||
| 06 | 15:00 | SE 6 | 20.00 | Overcast | OVC055 | 59 | 50 | 72% | 30.11 | 1019.8 | |||||||
| 06 | 14:00 | E 7 | 15.00 | Overcast | FEW025 OVC055 | 60.8 | 50 | 68% | 30.11 | 1019.8 | |||||||
| 06 | 13:00 | NE 6 | 15.00 | Overcast | OVC020 | 59 | 46.4 | 63% | 30.11 | 1019.8 | |||||||
| 06 | 12:00 | N 7 | 15.00 | Overcast | OVC020 | 57.2 | 46.4 | 67% | 30.11 | 1019.7 | |||||||
| 06 | 11:00 | N 7 | 15.00 | Overcast | OVC020 | 55.4 | 46.4 | 72% | 30.1 | 1019.3 | |||||||
| 06 | 10:00 | NW 10 | 12.00 | Overcast | OVC021 | 55.4 | 46.4 | 72% | 30.1 | 1019.3 | |||||||
| 06 | 09:00 | N 10 | 12.00 | Overcast | OVC017 | 53.6 | 46.4 | 77% | 30.09 | 1019.1 | |||||||
| 06 | 08:00 | N 10 | 15.00 | Overcast | OVC016 | 55.4 | 50 | 82% | 30.08 | 1018.6 | |||||||
| 06 | 07:00 | N 7 | 15.00 | Overcast | OVC014 | 53.6 | 50 | 88% | 30.06 | 1018.0 | |||||||
| 06 | 06:00 | NW 6 | 15.00 | Mostly Cloudy | FEW020 FEW050 SCT180 BKN250 | 51.8 | 50 | 94% | 30.04 | 1017.3 | |||||||
| 06 | 05:00 | N 6 | 20.00 | Partly Cloudy | SCT250 | 51.8 | 50 | 94% | 30.03 | 1017.0 | |||||||
| 06 | 04:00 | NW 6 | 20.00 | A Few Clouds | FEW250 | 51.8 | 50 | 94% | 30.02 | 1016.5 | |||||||
| 06 | 03:00 | NW 5 | 20.00 | Clear | SKC | 53.6 | 50 | 88% | 30.01 | 1016.2 | |||||||
| 06 | 02:00 | Calm | 20.00 | Clear | SKC | 53.6 | 50 | 88% | 30 | 1015.8 | |||||||
| 06 | 01:00 | W 2 | 20.00 | Clear | SKC | 55.4 | 51.8 | 88% | 29.99 | 1015.5 | |||||||
| 06 | 00:00 | NW 2 | 20.00 | Clear | SKC | 55.4 | 51.8 | 88% | 29.96 | 1014.8 | |||||||
| 05 | 23:00 | S 3 | 20.00 | Clear | SKC | 57.2 | 51.8 | 82% | 29.95 | 1014.2 | |||||||
| Date | Time (pdt) | Wind (mph) | Vis. (mi.) | Weather | Sky Cond. | Air | Dwpt | Max. | Min. | Relative Humidity | Wind Chill (°F) | Heat Index (°F) | altimeter (in) | sea level (mb) | 1 hr | 3 hr | 6 hr |
| 6 hour | |||||||||||||||||
| Temperature (ºF) | Pressure | Precipitation (in) | |||||||||||||||